Regional Weather Roundup
Issued by NWS Grand Forks, ND

Home | Current Version | Previous Version | Text Only | Print | Product List | Glossary Off
Versions: 1 2 3 4 5 6 7 8 9 10 11 12 13 14 15 16 17 18 19 20 21 22 23 24 25 26 27 28 29 30 31 32 33 34 35 36 37 38 39 40 41 42 43 44 45 46 47 48 49 50

581
ASUS43 KFGF 291010
RWRFGF
PRAIRIE TO PINES  WEATHER ROUNDUP
NATIONAL WEATHER SERVICE EASTERN NORTH DAKOTA/GRAND FORKS ND
500 AM CDT MON MAY 29 2017

 **SATELLITE DATA USED TO AUGMENT SKY COVER AT AUTOMATED STATIONS**
 *****  WEATHER ACROSS EASTERN NORTH DAKOTA  *****

CITY           SKY/WX    TMP DP  RH WIND       PRES   REMARKS
GRAND FORKS    LGT RAIN  51  50  96 NW12      29.81R
GRAND FRKS AFB LGT RAIN  50  50 100 N13       29.82S
DEVILS LAKE    CLOUDY    51  45  79 NW16G25   29.88R
FARGO          CLOUDY    52  48  86 NW15      29.81S
WAHPETON ARPT  CLOUDY    50  45  81 NW10      29.83R
$$

 ***** WEATHER ACROSS CENTRAL AND WESTERN NORTH DAKOTA  *****

CITY           SKY/WX    TMP DP  RH WIND       PRES   REMARKS
BISMARCK       CLOUDY    51  43  74 NW13G18   30.00R
MINOT          CLOUDY    52  43  71 NW17G26   29.98R
JAMESTOWN      LGT RAIN  50  47  89 NW16G24   29.88R
MINOT AFB      CLOUDY    51  43  76 NW18      29.98R
GARRISON         N/A     45  42  89 NW17      30.00R
WILLISTON      FAIR      47  38  71 NW13      30.10S
DICKINSON      FAIR      39  35  86 NW9       30.07R
HETTINGER      FAIR      35  32  88 NW6       30.10R
$$

 *****  OTHER AIRPORT OBSERVATIONS IN OUR AREA  *****

CITY           SKY/WX    TMP DP  RH WIND       PRES   REMARKS
WALHALLA       NOT AVBL
GRAFTON AIRPOR CLOUDY    50  50 100 NW14G20   29.83S
VALLEY CITY AR CLOUDY    52  52 100 NW14      29.87R
CANDO          NOT AVBL
CAVALIER APRT  CLOUDY    50  46  87 NW17G24   29.82R
GWINNER        CLOUDY    52  48  87 MISG      29.86R
SHEYENNE NWR     N/A     54  48  81 NW7       29.95S
ROLLA          CLOUDY    48  46  93 NW24G30   29.91R
 ***** THE ABOVE OBSERVATIONS ARE NON NWS ARE NOT QUALITY
       CONTROLLED AND MAY MIS-REPORT RAIN FOR SNOW...
$$

  *****  WEATHER ACROSS NORTHERN MINNESOTA  *****

CITY           SKY/WX    TMP DP  RH WIND       PRES   REMARKS
FLAG ISLAND    CLOUDY    48  46  93 NW18      29.69S
WARROAD        CLOUDY    48  45  87 NW13G23   29.73S
ROSEAU         CLOUDY    48  43  81 NW12G21   29.75R
HALLOCK        CLOUDY    48  46  93 NW15      29.79S
THF RVR FALLS  LGT RAIN  47  45  93 NW18      29.78R
BAUDETTE       CLOUDY    49  47  93 NW13      29.69S
WASKISH        CLOUDY    48  46  93 NW13G22   29.71R
CROOKSTON      LGT RAIN  48  48 100 N20       29.80R
STEPHEN NDAWN    N/A     48  46  93 NW12        N/A
GREENBUSH NDAW   N/A     46  43  87 NW16        N/A
$$
  *****  WEATHER ACROSS CENTRAL AND WEST MINNESOTA  *****

CITY           SKY/WX    TMP DP  RH WIND       PRES   REMARKS
FOSSTON        DRIZZLE   46  46 100 NW10G16   29.77R
BEMIDJI        CLOUDY    46  46  97 NW12      29.73R
PARK RAPIDS    CLOUDY    50  45  83 NW14      29.73S
ELBOW LAKE     DRIZZLE   50  49  95 NW22G29   29.81S
WADENA         CLOUDY    48  45  87 NW16      29.75S
DETROIT LAKES  CLOUDY    48  46  93 NW17G23   29.79R
MOORHEAD       CLOUDY    50  48  93 NW12      29.82R FOG
FERGUS FALLS   CLOUDY    48  48 100 NW17      29.80R
MORRIS MN      CLOUDY    54  48  82 NW15G23   29.81R
STAPLES        RAIN      48  45  87 W13       29.74S
$$
  *****  WEATHER ELSEWHERE ACROSS MINNESOTA  *****

CITY           SKY/WX    TMP DP  RH WIND       PRES   REMARKS
DULUTH         CLOUDY    52  49  89 NW13      29.63R
INTRNTL FALLS  CLOUDY    50  47  89 W9        29.64S
ELY            LGT RAIN  52  50  93 W5        29.59S
CLOQUET        CLOUDY    52  48  87 W9G16     29.65S
WHEATON        CLOUDY    54  46  76 W14       29.85R
BRAINERD       CLOUDY    51  46  83 W13       29.73R
HIBBING        CLOUDY    49  48  97 NW14      29.64R
ALEXANDRIA     CLOUDY    51  47  86 NW15      29.79R
SAINT CLOUD    MOCLDY    51  48  89 NW10G23   29.75R
MINNEAPOLIS    CLOUDY    55  46  71 W12       29.75R
$$

  *****  WEATHER ACROSS SOUTH DAKOTA  *****

CITY           SKY/WX    TMP DP  RH WIND       PRES   REMARKS
SIOUX FALLS    FAIR      50  45  83 NW8       29.91R
BROOKINGS      FAIR      48  43  82 W12       29.89R
WATERTOWN      CLOUDY    49  44  83 NW13      29.88R
HURON          FAIR      47  42  83 W10       29.94R
SISSETON         N/A     53  47  79 NW15      29.83R
ABERDEEN       FAIR      48  40  73 NW14      29.91S
MITCHELL       FAIR      50  44  80 NW12      29.96R
PIERRE         FAIR      48  39  71 NW12      30.01R
MOBRIDGE       FAIR      48  39  71 NW12      29.98R
RAPID CITY     FAIR      43  36  76 NW7       30.13R
$$

  *****  SOME WEATHER IN NEARBY STATES *****

CITY           SKY/WX    TMP DP  RH WIND       PRES   REMARKS
GLASGOW MT     FAIR      40  31  70 N6        30.18S
GREAT FALLS MT FAIR      43  41  93 SW7       30.25S
CHEYENNE WY    FAIR      43  36  76 W10       30.27F
SCOTTSBLUFF NE FAIR      48  42  80 NW5       30.18S
OMAHA NE       FAIR      58  44  60 N3        29.94R
DES MOINES IA  CLOUDY    57  49  74 NW5       29.90R
DAVENPORT IA   FAIR      58  48  69 W7        29.85R
CHICAGO IL     FAIR      59  50  72 W8        29.76S
EAU CLAIRE WI  CLOUDY    51  49  92 W9        29.69R
LA CROSSE WI   FAIR      57  46  66 W13G21    29.72S
$$

  *****  SOME NATIONAL WEATHER *****

CITY           SKY/WX    TMP DP  RH WIND       PRES   REMARKS
LA GUARDIA NY  LGT RAIN  57  54  89 NE10      29.89R
RALEIGH NC     FAIR      66  62  87 CALM      29.87R
ATLANTA GA     MOCLDY    70  65  84 NW8       29.99S
NEW ORLEANS LA MOCLDY    75  63  66 E9        29.99R
OKLAHOMA CITY  MOCLDY    60  47  61 CALM      30.03F
ALBUQUERQUE NM FAIR      61  37  41 N9        30.18S
SALT LAKE CITY FAIR      59  40  49 S3        30.13S
LOS ANGELES CA CLOUDY    60  57  89 SW5       29.93F
BOISE ID       FAIR      58  43  57 S3        30.08S
SEATTLE WA     FAIR      53  50  89 S8        30.08R
$$

*** WEATHER ACROSS MANITOBA...SASKATCHEWAN AND ONTARIO ***
                ***ONTARIO***

CITY           SKY/WX    TMP DP  RH WIND       PRES   REMARKS
GERALDTON      LGT RAIN  54  52  94 CALM      29.52S
THUNDER BAY    FOG       50  50 100 VRB2      29.55S VSB 3/4
SIOUX LOOKOUT  MOCLDY    50  50 100 NW6       29.57S
TORONTO        MOCLDY    61  57  88 SW6       29.68R
BIG TROUT LK   MOCLDY    52  50  93 N5        29.58S
PICKLE LAKE    NOT AVBL
DRYDEN         LGT RAIN  52  50  93 NW7       29.59F
KENORA         LGT RAIN  46  46 100 NW13G22   29.68R FOG
$$
                *** MANITOBA***

CITY           SKY/WX    TMP DP  RH WIND       PRES   REMARKS
BRANDON        NOT AVBL
DAUPHIN        LGT RAIN  48  46  93 N16G28    29.90S
ISLAND LAKE    NOT AVBL
PILOT MOUND      N/A     46  45  93 NW13        N/A
THE PAS        CLOUDY    46  37  71 N18G30    29.95R
THOMPSON       LGT RAIN  37  36  93 N12       29.87S FOG
WINNIPEG       LGT RAIN  45  43  93 N15       29.82R
LYNN LAKE      LGT RAIN  37  37 100 N8        30.03S
CHURCHILL      MOCLDY    32  32 100 N13       29.90R WCI  22
GILLAM         FOG       34  34 100 N14       29.81S VSB 1/4 WCI  24
$$
                ***SASKATCHEWAN***

CITY           SKY/WX    TMP DP  RH WIND       PRES   REMARKS
ESTEVAN        PTCLDY    45  43  93 W12       30.06R
KINDERSLEY     CLEAR     43  36  75 NE3       30.23S
LLOYDMINSTER   CLEAR     41  34  75 VRB2      30.24R
PRINCE ALBERT  PTCLDY    43  37  81 NW7       30.15R
REGINA         MOCLDY    46  41  81 NW13      30.11S
YORKTON          N/A     46  43  87 NW14      30.01R
N. BATTLEFORD  CLEAR     39  39 100 W6        30.24S
LA RONGE       PTCLDY    45  39  81 NW7       30.15R
SASKATOON      PTCLDY    37  34  87 NW8       30.19R
SWIFT CURRENT  CLEAR     37  32  81 W7        30.21R
$$
NOTE: THESE ARE AUTOMATED STATIONS WITH LIMITED QUALITY CONTROL
      "FAIR" INDICATES FEW OR NO CLOUDS BELOW 12,000 FEET WITH NO
      SIGNIFICANT WEATHER AND/OR OBSTRUCTIONS TO VISIBILITY.
      SKY/WX - SKY CONDITION AND SIGNIFICANT WEATHER.
      TMP - AIR TEMPERATURE.    DP   - DEWPOINT TEMPERATURE.
      RH  - RELATIVE HUMIDITY.  PRES - PRESSURE.
      HX  - HEAT INDEX.         WCI  - WIND CHILL INDEX.
$




USA.gov is the U.S. government's official web portal to all federal, state and local government web resources and services.